Time,TemperatureF,DewpointF,PressureIn,WindDirection,WindDirectionDegrees,WindSpeedMPH,WindSpeedGustMPH,Humidity,HourlyPrecipIn,Conditions,Clouds,dailyrainin,SoftwareType,DateUTC
2013-02-07 00:00:00,27.4,22.0,30.21,North,32767,-999.0,0.0,80,0.00,,,0.11,Wunderground v.1.15,2013-02-07 05:00:00,
2013-02-07 00:05:00,27.5,22.1,30.20,North,32767,-999.0,0.0,80,0.00,,,0.00,Wunderground v.1.15,2013-02-07 05:05:00,
2013-02-07 00:10:00,27.5,22.1,30.20,North,32767,-999.0,0.0,80,0.00,,,0.00,Wunderground v.1.15,2013-02-07 05:10:00,
2013-02-07 00:20:00,27.8,22.1,30.20,North,32767,-999.0,0.0,79,0.00,,,0.00,Wunderground v.1.15,2013-02-07 05:20:00,
2013-02-07 00:25:00,27.8,22.1,30.20,North,32767,-999.0,0.0,79,0.00,,,0.00,Wunderground v.1.15,2013-02-07 05:25:00,
2013-02-07 00:30:00,27.8,22.1,30.21,North,32767,-999.0,0.0,79,0.00,,,0.00,Wunderground v.1.15,2013-02-07 05:30:00,
2013-02-07 00:35:00,27.8,22.1,30.21,North,32767,-999.0,0.0,79,0.00,,,0.00,Wunderground v.1.15,2013-02-07 05:35:00,
2013-02-07 00:45:00,27.8,22.1,30.21,North,32767,-999.0,0.0,79,0.00,,,0.00,Wunderground v.1.15,2013-02-07 05:45:00,
2013-02-07 00:55:00,27.7,22.0,30.21,North,32767,-999.0,0.0,79,0.00,,,0.00,Wunderground v.1.15,2013-02-07 05:55:00,
2013-02-07 01:05:00,27.7,22.0,30.21,North,32767,-999.0,0.0,79,0.00,,,0.00,Wunderground v.1.15,2013-02-07 06:05:00,
2013-02-07 01:15:00,27.5,22.1,30.22,North,32767,-999.0,0.0,80,0.00,,,0.00,Wunderground v.1.15,2013-02-07 06:15:00,
2013-02-07 01:25:00,27.4,22.3,30.22,North,32767,-999.0,0.0,81,0.00,,,0.00,Wunderground v.1.15,2013-02-07 06:25:00,
2013-02-07 01:30:00,27.4,22.3,30.22,North,32767,-999.0,0.0,81,0.00,,,0.00,Wunderground v.1.15,2013-02-07 06:30:00,
2013-02-07 01:40:00,27.5,22.4,30.22,North,32767,-999.0,0.0,81,0.00,,,0.00,Wunderground v.1.15,2013-02-07 06:40:00,
2013-02-07 01:45:00,27.5,22.4,30.22,North,32767,-999.0,0.0,81,0.00,,,0.00,Wunderground v.1.15,2013-02-07 06:45:00,
2013-02-07 01:55:00,27.5,22.1,30.21,North,32767,-999.0,0.0,80,0.00,,,0.00,Wunderground v.1.15,2013-02-07 06:55:00,
2013-02-07 02:00:00,27.6,22.2,30.22,North,32767,-999.0,0.0,80,0.00,,,0.00,Wunderground v.1.15,2013-02-07 07:00:00,
2013-02-07 02:05:00,27.6,22.2,30.22,North,32767,-999.0,0.0,80,0.00,,,0.00,Wunderground v.1.15,2013-02-07 07:05:00,
2013-02-07 02:15:00,27.7,22.3,30.21,North,32767,-999.0,0.0,80,0.00,,,0.00,Wunderground v.1.15,2013-02-07 07:15:00,
2013-02-07 02:20:00,27.7,22.3,30.21,North,32767,-999.0,0.0,80,0.00,,,0.00,Wunderground v.1.15,2013-02-07 07:20:00,
2013-02-07 02:30:00,27.8,22.1,30.21,North,32767,-999.0,0.0,79,0.00,,,0.00,Wunderground v.1.15,2013-02-07 07:30:00,
2013-02-07 02:35:00,27.8,22.1,30.22,North,32767,-999.0,0.0,79,0.00,,,0.00,Wunderground v.1.15,2013-02-07 07:35:00,
2013-02-07 02:45:00,27.7,22.3,30.20,North,32767,-999.0,0.0,80,0.00,,,0.00,Wunderground v.1.15,2013-02-07 07:45:00,
2013-02-07 02:50:00,27.8,22.4,30.21,North,32767,-999.0,0.0,80,0.00,,,0.00,Wunderground v.1.15,2013-02-07 07:50:00,
2013-02-07 02:55:00,27.8,22.1,30.20,North,32767,-999.0,0.0,79,0.00,,,0.00,Wunderground v.1.15,2013-02-07 07:55:00,
2013-02-07 03:05:00,27.8,22.1,30.20,North,32767,-999.0,0.0,79,0.00,,,0.00,Wunderground v.1.15,2013-02-07 08:05:00,
2013-02-07 03:15:00,27.9,22.2,30.19,North,32767,-999.0,0.0,79,0.00,,,0.00,Wunderground v.1.15,2013-02-07 08:15:00,
2013-02-07 03:25:00,27.9,22.2,30.18,North,32767,-999.0,0.0,79,0.00,,,0.00,Wunderground v.1.15,2013-02-07 08:25:00,
2013-02-07 03:35:00,27.9,22.2,30.19,North,32767,-999.0,0.0,79,0.00,,,0.00,Wunderground v.1.15,2013-02-07 08:35:00,
2013-02-07 03:45:00,27.9,22.2,30.19,North,32767,-999.0,0.0,79,0.00,,,0.00,Wunderground v.1.15,2013-02-07 08:45:00,
2013-02-07 03:55:00,28.0,22.3,30.18,North,32767,-999.0,0.0,79,0.00,,,0.00,Wunderground v.1.15,2013-02-07 08:55:00,
2013-02-07 04:05:00,27.9,22.5,30.17,North,32767,-999.0,0.0,80,0.00,,,0.00,Wunderground v.1.15,2013-02-07 09:05:00,
2013-02-07 04:15:00,27.9,22.2,30.17,North,32767,-999.0,0.0,79,0.00,,,0.00,Wunderground v.1.15,2013-02-07 09:15:00,
2013-02-07 04:25:00,27.8,22.1,30.17,North,32767,-999.0,0.0,79,0.00,,,0.00,Wunderground v.1.15,2013-02-07 09:25:00,
2013-02-07 04:35:00,27.7,22.3,30.17,North,32767,-999.0,0.0,80,0.00,,,0.00,Wunderground v.1.15,2013-02-07 09:35:00,
2013-02-07 04:45:00,27.5,22.1,30.18,North,32767,-999.0,0.0,80,0.00,,,0.00,Wunderground v.1.15,2013-02-07 09:45:00,
2013-02-07 04:50:00,27.5,22.1,30.18,North,32767,-999.0,0.0,80,0.00,,,0.00,Wunderground v.1.15,2013-02-07 09:50:00,
2013-02-07 04:55:00,27.5,22.1,30.18,North,32767,-999.0,0.0,80,0.00,,,0.00,Wunderground v.1.15,2013-02-07 09:55:00,
2013-02-07 05:05:00,27.3,22.2,30.18,North,32767,-999.0,0.0,81,0.00,,,0.00,Wunderground v.1.15,2013-02-07 10:05:00,
2013-02-07 05:15:00,27.4,22.0,30.17,North,32767,-999.0,0.0,80,0.00,,,0.00,Wunderground v.1.15,2013-02-07 10:15:00,
2013-02-07 05:25:00,27.4,22.0,30.17,North,32767,-999.0,0.0,80,0.00,,,0.00,Wunderground v.1.15,2013-02-07 10:25:00,
2013-02-07 05:35:00,27.3,22.2,30.17,North,32767,-999.0,0.0,81,0.00,,,0.00,Wunderground v.1.15,2013-02-07 10:35:00,
2013-02-07 05:45:00,27.5,22.1,30.17,North,32767,-999.0,0.0,80,0.00,,,0.00,Wunderground v.1.15,2013-02-07 10:45:00,
2013-02-07 05:55:00,27.4,22.3,30.17,North,32767,-999.0,0.0,81,0.00,,,0.00,Wunderground v.1.15,2013-02-07 10:55:00,
2013-02-07 06:00:00,27.4,22.3,30.16,North,32767,-999.0,0.0,81,0.00,,,0.00,Wunderground v.1.15,2013-02-07 11:00:00,
2013-02-07 06:05:00,27.3,22.5,30.16,North,32767,-999.0,0.0,82,0.00,,,0.00,Wunderground v.1.15,2013-02-07 11:05:00,
2013-02-07 06:15:00,27.2,22.4,30.16,North,32767,-999.0,0.0,82,0.00,,,0.00,Wunderground v.1.15,2013-02-07 11:15:00,
2013-02-07 06:25:00,27.4,22.6,30.16,North,32767,-999.0,0.0,82,0.00,,,0.00,Wunderground v.1.15,2013-02-07 11:25:00,
2013-02-07 06:35:00,27.5,22.7,30.15,North,32767,-999.0,0.0,82,0.00,,,0.00,Wunderground v.1.15,2013-02-07 11:35:00,
2013-02-07 06:45:00,27.6,22.8,30.15,North,32767,-999.0,0.0,82,0.00,,,0.00,Wunderground v.1.15,2013-02-07 11:45:00,
2013-02-07 06:55:00,27.8,22.7,30.15,North,32767,-999.0,0.0,81,0.00,,,0.00,Wunderground v.1.15,2013-02-07 11:55:00,
2013-02-07 07:05:00,27.9,22.8,30.15,North,32767,-999.0,0.0,81,0.00,,,0.00,Wunderground v.1.15,2013-02-07 12:05:00,
2013-02-07 07:15:00,27.9,22.8,30.15,North,32767,-999.0,0.0,81,0.00,,,0.00,Wunderground v.1.15,2013-02-07 12:15:00,
2013-02-07 07:25:00,27.9,22.8,30.15,North,32767,-999.0,0.0,81,0.00,,,0.00,Wunderground v.1.15,2013-02-07 12:25:00,
2013-02-07 07:30:00,27.7,22.9,30.15,North,32767,-999.0,0.0,82,0.00,,,0.00,Wunderground v.1.15,2013-02-07 12:30:00,
2013-02-07 07:35:00,27.8,23.0,30.14,North,32767,-999.0,0.0,82,0.00,,,0.00,Wunderground v.1.15,2013-02-07 12:35:00,
2013-02-07 07:45:00,27.8,23.0,30.15,North,32767,-999.0,0.0,82,0.00,,,0.00,Wunderground v.1.15,2013-02-07 12:45:00,
2013-02-07 07:50:00,27.8,23.0,30.15,North,32767,-999.0,0.0,82,0.00,,,0.00,Wunderground v.1.15,2013-02-07 12:50:00,
2013-02-07 07:55:00,27.8,22.7,30.15,North,32767,-999.0,0.0,81,0.00,,,0.00,Wunderground v.1.15,2013-02-07 12:55:00,
2013-02-07 08:05:00,27.8,23.0,30.15,North,32767,-999.0,0.0,82,0.00,,,0.00,Wunderground v.1.15,2013-02-07 13:05:00,
2013-02-07 08:15:00,27.8,23.0,30.15,North,32767,-999.0,0.0,82,0.00,,,0.00,Wunderground v.1.15,2013-02-07 13:15:00,
2013-02-07 08:20:00,27.7,22.9,30.15,North,32767,-999.0,0.0,82,0.00,,,0.00,Wunderground v.1.15,2013-02-07 13:20:00,
2013-02-07 08:25:00,27.7,22.9,30.15,North,32767,-999.0,0.0,82,0.00,,,0.00,Wunderground v.1.15,2013-02-07 13:25:00,
2013-02-07 08:35:00,27.7,22.9,30.15,North,32767,-999.0,0.0,82,0.00,,,0.00,Wunderground v.1.15,2013-02-07 13:35:00,
2013-02-07 08:45:00,27.8,23.3,30.15,North,32767,-999.0,0.0,83,0.00,,,0.00,Wunderground v.1.15,2013-02-07 13:45:00,
2013-02-07 08:55:00,27.8,23.3,30.14,North,32767,-999.0,0.0,83,0.00,,,0.00,Wunderground v.1.15,2013-02-07 13:55:00,
2013-02-07 09:05:00,27.9,23.4,30.15,North,32767,-999.0,0.0,83,0.00,,,0.00,Wunderground v.1.15,2013-02-07 14:05:00,
2013-02-07 09:15:00,28.0,23.5,30.14,North,32767,-999.0,0.0,83,0.00,,,0.00,Wunderground v.1.15,2013-02-07 14:15:00,
2013-02-07 09:25:00,28.1,23.6,30.14,North,32767,-999.0,0.0,83,0.00,,,0.00,Wunderground v.1.15,2013-02-07 14:25:00,
2013-02-07 09:30:00,28.1,23.9,30.14,North,32767,-999.0,0.0,84,0.00,,,0.00,Wunderground v.1.15,2013-02-07 14:30:00,
2013-02-07 09:40:00,28.2,24.0,30.14,North,32767,-999.0,0.0,84,0.00,,,0.00,Wunderground v.1.15,2013-02-07 14:40:00,
2013-02-07 09:45:00,28.3,23.8,30.14,North,32767,-999.0,0.0,83,0.00,,,0.00,Wunderground v.1.15,2013-02-07 14:45:00,
2013-02-07 09:55:00,28.3,24.4,30.13,North,32767,-999.0,0.0,85,0.00,,,0.00,Wunderground v.1.15,2013-02-07 14:55:00,
2013-02-07 10:05:00,27.6,24.8,30.12,North,32767,-999.0,0.0,89,0.00,,,0.00,Wunderground v.1.15,2013-02-07 15:05:00,
2013-02-07 10:10:00,27.5,25.0,30.12,North,32767,-999.0,0.0,90,0.00,,,0.00,Wunderground v.1.15,2013-02-07 15:10:00,
2013-02-07 10:15:00,27.4,25.1,30.12,North,32767,-999.0,0.0,91,0.00,,,0.00,Wunderground v.1.15,2013-02-07 15:15:00,
2013-02-07 10:25:00,27.4,25.4,30.11,North,32767,-999.0,0.0,92,0.00,,,0.00,Wunderground v.1.15,2013-02-07 15:25:00,
2013-02-07 10:35:00,27.5,25.5,30.11,North,32767,-999.0,0.0,92,0.00,,,0.00,Wunderground v.1.15,2013-02-07 15:35:00,
2013-02-07 10:45:00,27.6,25.8,30.11,North,32767,-999.0,0.0,93,0.00,,,0.00,Wunderground v.1.15,2013-02-07 15:45:00,
2013-02-07 10:50:00,27.7,25.9,30.11,North,32767,-999.0,0.0,93,0.00,,,0.00,Wunderground v.1.15,2013-02-07 15:50:00,
2013-02-07 11:00:00,27.9,26.1,30.10,North,32767,-999.0,0.0,93,0.00,,,0.00,Wunderground v.1.15,2013-02-07 16:00:00,
2013-02-07 11:05:00,27.9,26.4,30.10,North,32767,-999.0,0.0,94,0.00,,,0.00,Wunderground v.1.15,2013-02-07 16:05:00,
2013-02-07 11:15:00,28.0,26.5,30.10,NW,319,0.0,0.0,94,0.00,,,0.00,Wunderground v.1.15,2013-02-07 16:15:00,
2013-02-07 11:25:00,28.2,26.7,30.10,SSE,162,0.0,0.0,94,0.00,,,0.00,Wunderground v.1.15,2013-02-07 16:25:00,
2013-02-07 11:35:00,28.3,26.8,30.10,NW,318,0.0,0.0,94,0.00,,,0.00,Wunderground v.1.15,2013-02-07 16:35:00,
2013-02-07 11:45:00,28.5,27.0,30.09,NW,316,0.0,0.0,94,0.00,,,0.00,Wunderground v.1.15,2013-02-07 16:45:00,
2013-02-07 11:55:00,28.7,27.2,30.09,NNW,338,0.0,0.0,94,0.00,,,0.00,Wunderground v.1.15,2013-02-07 16:55:00,
2013-02-07 12:05:00,28.8,27.3,30.09,NNW,331,0.0,0.0,94,0.00,,,0.00,Wunderground v.1.15,2013-02-07 17:05:00,
2013-02-07 12:15:00,28.9,27.6,30.08,NW,315,0.0,0.0,95,0.00,,,0.00,Wunderground v.1.15,2013-02-07 17:15:00,
2013-02-07 12:20:00,29.0,27.7,30.08,NW,323,0.0,0.0,95,0.00,,,0.00,Wunderground v.1.15,2013-02-07 17:20:00,
2013-02-07 12:25:00,29.0,27.7,30.08,NNW,348,0.0,0.0,95,0.00,,,0.00,Wunderground v.1.15,2013-02-07 17:25:00,
2013-02-07 12:35:00,29.2,27.9,30.07,NW,324,0.0,0.0,95,0.00,,,0.00,Wunderground v.1.15,2013-02-07 17:35:00,
2013-02-07 12:45:00,29.3,28.0,30.06,NE,42,0.0,0.0,95,0.00,,,0.00,Wunderground v.1.15,2013-02-07 17:45:00,
2013-02-07 12:55:00,29.3,28.0,30.05,North,349,0.0,0.0,95,0.00,,,0.00,Wunderground v.1.15,2013-02-07 17:55:00,
2013-02-07 13:00:00,29.3,28.0,30.05,North,350,0.0,0.0,95,0.00,,,0.00,Wunderground v.1.15,2013-02-07 18:00:00,
2013-02-07 13:05:00,29.4,28.1,30.05,NNE,25,0.0,0.0,95,0.00,,,0.00,Wunderground v.1.15,2013-02-07 18:05:00,
2013-02-07 13:15:00,29.6,28.3,30.04,NNE,17,0.0,0.0,95,0.00,,,0.00,Wunderground v.1.15,2013-02-07 18:15:00,
2013-02-07 13:25:00,29.8,28.5,30.04,NW,326,0.0,0.0,95,0.00,,,0.00,Wunderground v.1.15,2013-02-07 18:25:00,
2013-02-07 13:30:00,29.8,28.5,30.04,NNW,346,0.0,0.0,95,0.00,,,0.00,Wunderground v.1.15,2013-02-07 18:30:00,
2013-02-07 13:35:00,29.8,28.5,30.03,North,351,0.0,0.0,95,0.00,,,0.00,Wunderground v.1.15,2013-02-07 18:35:00,
2013-02-07 13:45:00,30.0,28.7,30.03,ENE,57,0.0,0.0,95,0.00,,,0.00,Wunderground v.1.15,2013-02-07 18:45:00,
2013-02-07 13:55:00,30.3,29.0,30.02,North,360,0.0,0.0,95,0.00,,,0.00,Wunderground v.1.15,2013-02-07 18:55:00,
2013-02-07 14:00:00,30.6,29.3,30.02,NNE,32,0.0,0.0,95,0.00,,,0.00,Wunderground v.1.15,2013-02-07 19:00:00,
2013-02-07 14:10:00,31.2,29.9,30.01,NE,44,0.0,0.0,95,0.00,,,0.00,Wunderground v.1.15,2013-02-07 19:10:00,
2013-02-07 14:20:00,31.6,30.6,30.01,NE,45,0.0,0.0,96,0.00,,,0.00,Wunderground v.1.15,2013-02-07 19:20:00,
2013-02-07 14:25:00,31.7,30.7,30.01,NE,44,0.0,0.0,96,0.00,,,0.00,Wunderground v.1.15,2013-02-07 19:25:00,
2013-02-07 14:35:00,31.9,30.9,30.01,NE,50,0.0,0.0,96,0.00,,,0.01,Wunderground v.1.15,2013-02-07 19:35:00,
2013-02-07 14:45:00,32.0,31.0,30.00,NE,50,0.0,0.0,96,0.00,,,0.01,Wunderground v.1.15,2013-02-07 19:45:00,
2013-02-07 14:55:00,32.1,31.1,30.00,NE,50,0.0,0.0,96,0.00,,,0.01,Wunderground v.1.15,2013-02-07 19:55:00,
2013-02-07 15:05:00,32.1,31.1,29.99,ENE,57,0.0,0.0,96,0.07,,,0.03,Wunderground v.1.15,2013-02-07 20:05:00,
2013-02-07 15:10:00,32.2,31.2,29.99,NE,42,0.0,0.0,96,0.04,,,0.03,Wunderground v.1.15,2013-02-07 20:10:00,
2013-02-07 15:15:00,32.2,31.2,29.99,NNE,28,0.0,0.0,96,0.04,,,0.04,Wunderground v.1.15,2013-02-07 20:15:00,
2013-02-07 15:25:00,32.2,31.2,29.98,ENE,65,0.0,0.0,96,0.06,,,0.05,Wunderground v.1.15,2013-02-07 20:25:00,
2013-02-07 15:35:00,32.3,31.3,29.98,NNE,31,0.0,0.0,96,0.05,,,0.05,Wunderground v.1.15,2013-02-07 20:35:00,
2013-02-07 15:45:00,32.4,31.4,29.98,NE,50,0.0,0.0,96,0.04,,,0.06,Wunderground v.1.15,2013-02-07 20:45:00,
2013-02-07 15:55:00,32.5,31.5,29.98,NE,53,0.0,0.0,96,0.04,,,0.06,Wunderground v.1.15,2013-02-07 20:55:00,
2013-02-07 16:05:00,32.5,31.5,29.97,NE,52,0.0,0.0,96,0.00,,,0.07,Wunderground v.1.15,2013-02-07 21:05:00,
2013-02-07 16:15:00,32.5,31.5,29.97,NE,48,0.0,0.0,96,0.00,,,0.07,Wunderground v.1.15,2013-02-07 21:15:00,
2013-02-07 16:20:00,32.5,31.5,29.96,NE,41,0.0,0.0,96,0.00,,,0.07,Wunderground v.1.15,2013-02-07 21:20:00,
2013-02-07 16:25:00,32.5,31.5,29.96,ENE,63,0.0,0.0,96,0.00,,,0.08,Wunderground v.1.15,2013-02-07 21:25:00,
2013-02-07 16:35:00,32.4,31.4,29.96,NE,49,0.0,0.0,96,0.00,,,0.08,Wunderground v.1.15,2013-02-07 21:35:00,
2013-02-07 16:45:00,32.4,31.4,29.95,ENE,59,0.0,0.0,96,0.00,,,0.08,Wunderground v.1.15,2013-02-07 21:45:00,
2013-02-07 16:55:00,32.2,31.2,29.94,ENE,63,0.0,0.0,96,0.00,,,0.08,Wunderground v.1.15,2013-02-07 21:55:00,
2013-02-07 17:00:00,32.2,31.2,29.93,NE,34,0.0,0.0,96,0.00,,,0.08,Wunderground v.1.15,2013-02-07 22:00:00,
2013-02-07 17:05:00,32.1,31.1,29.93,NE,34,0.0,0.0,96,0.00,,,0.08,Wunderground v.1.15,2013-02-07 22:05:00,
2013-02-07 17:15:00,32.0,31.0,29.92,NE,38,0.0,0.0,96,0.00,,,0.09,Wunderground v.1.15,2013-02-07 22:15:00,
2013-02-07 17:25:00,32.0,31.0,29.92,NE,34,0.0,0.0,96,0.00,,,0.09,Wunderground v.1.15,2013-02-07 22:25:00,
2013-02-07 17:35:00,32.0,31.0,29.92,NE,43,0.0,0.0,96,0.00,,,0.09,Wunderground v.1.15,2013-02-07 22:35:00,
2013-02-07 17:45:00,32.1,31.1,29.91,NE,42,0.0,0.0,96,0.00,,,0.09,Wunderground v.1.15,2013-02-07 22:45:00,
2013-02-07 17:55:00,32.1,31.1,29.91,North,32767,-999.0,0.0,96,0.00,,,0.09,Wunderground v.1.15,2013-02-07 22:55:00,
2013-02-07 18:05:00,32.2,31.2,29.92,North,32767,-999.0,0.0,96,0.00,,,0.09,Wunderground v.1.15,2013-02-07 23:05:00,
2013-02-07 18:15:00,32.2,31.2,29.91,North,32767,-999.0,0.0,96,0.00,,,0.09,Wunderground v.1.15,2013-02-07 23:15:00,
2013-02-07 18:25:00,32.2,31.2,29.92,North,32767,-999.0,0.0,96,0.00,,,0.09,Wunderground v.1.15,2013-02-07 23:25:00,
2013-02-07 18:30:00,32.3,31.3,29.92,North,32767,-999.0,0.0,96,0.00,,,0.09,Wunderground v.1.15,2013-02-07 23:30:00,
2013-02-07 18:35:00,32.4,31.4,29.92,North,32767,-999.0,0.0,96,0.00,,,0.09,Wunderground v.1.15,2013-02-07 23:35:00,
2013-02-07 18:45:00,32.4,31.4,29.92,North,32767,-999.0,0.0,96,0.00,,,0.09,Wunderground v.1.15,2013-02-07 23:45:00,
2013-02-07 18:55:00,32.5,31.5,29.91,North,32767,-999.0,0.0,96,0.00,,,0.09,Wunderground v.1.15,2013-02-07 23:55:00,
2013-02-07 19:05:00,32.6,31.6,29.91,North,32767,-999.0,0.0,96,0.00,,,0.09,Wunderground v.1.15,2013-02-08 00:05:00,
2013-02-07 19:15:00,32.6,31.6,29.91,North,32767,-999.0,0.0,96,0.00,,,0.09,Wunderground v.1.15,2013-02-08 00:15:00,
2013-02-07 19:20:00,32.7,31.7,29.91,North,32767,-999.0,0.0,96,0.00,,,0.09,Wunderground v.1.15,2013-02-08 00:20:00,
2013-02-07 19:30:00,32.8,31.8,29.91,North,32767,-999.0,0.0,96,0.00,,,0.09,Wunderground v.1.15,2013-02-08 00:30:00,
2013-02-07 19:35:00,32.8,31.8,29.91,North,32767,-999.0,0.0,96,0.00,,,0.09,Wunderground v.1.15,2013-02-08 00:35:00,
2013-02-07 19:45:00,32.9,31.9,29.91,North,32767,-999.0,0.0,96,0.00,,,0.09,Wunderground v.1.15,2013-02-08 00:45:00,
2013-02-07 19:55:00,32.8,31.8,29.90,North,32767,-999.0,0.0,96,0.00,,,0.09,Wunderground v.1.15,2013-02-08 00:55:00,
2013-02-07 20:05:00,32.6,31.6,29.91,North,32767,-999.0,0.0,96,0.00,,,0.09,Wunderground v.1.15,2013-02-08 01:05:00,
2013-02-07 20:10:00,32.6,31.6,29.91,North,32767,-999.0,0.0,96,0.00,,,0.09,Wunderground v.1.15,2013-02-08 01:10:00,
2013-02-07 20:15:00,32.5,31.5,29.91,North,32767,-999.0,0.0,96,0.00,,,0.09,Wunderground v.1.15,2013-02-08 01:15:00,
2013-02-07 20:25:00,32.4,31.4,29.91,North,32767,-999.0,0.0,96,0.00,,,0.09,Wunderground v.1.15,2013-02-08 01:25:00,
2013-02-07 20:35:00,32.3,31.3,29.91,North,32767,-999.0,0.0,96,0.00,,,0.09,Wunderground v.1.15,2013-02-08 01:35:00,
2013-02-07 20:45:00,32.2,31.2,29.91,North,32767,-999.0,0.0,96,0.00,,,0.09,Wunderground v.1.15,2013-02-08 01:45:00,
2013-02-07 20:50:00,32.1,31.1,29.91,North,32767,-999.0,0.0,96,0.00,,,0.09,Wunderground v.1.15,2013-02-08 01:50:00,
2013-02-07 20:55:00,32.1,31.1,29.91,North,32767,-999.0,0.0,96,0.00,,,0.09,Wunderground v.1.15,2013-02-08 01:55:00,
2013-02-07 21:05:00,32.0,31.0,29.91,North,32767,-999.0,0.0,96,0.00,,,0.09,Wunderground v.1.15,2013-02-08 02:05:00,
2013-02-07 21:15:00,32.0,31.0,29.91,North,32767,-999.0,0.0,96,0.00,,,0.09,Wunderground v.1.15,2013-02-08 02:15:00,
2013-02-07 21:25:00,31.9,30.9,29.91,North,32767,-999.0,0.0,96,0.00,,,0.09,Wunderground v.1.15,2013-02-08 02:25:00,
2013-02-07 21:30:00,31.8,30.8,29.91,North,32767,-999.0,0.0,96,0.00,,,0.09,Wunderground v.1.15,2013-02-08 02:30:00,
2013-02-07 21:40:00,31.7,30.7,29.90,North,32767,-999.0,0.0,96,0.00,,,0.09,Wunderground v.1.15,2013-02-08 02:40:00,
2013-02-07 21:50:00,31.6,30.6,29.90,North,32767,-999.0,0.0,96,0.00,,,0.09,Wunderground v.1.15,2013-02-08 02:50:00,
2013-02-07 21:55:00,31.6,30.6,29.89,North,32767,-999.0,0.0,96,0.00,,,0.09,Wunderground v.1.15,2013-02-08 02:55:00,
2013-02-07 22:05:00,31.5,30.5,29.89,North,32767,-999.0,0.0,96,0.00,,,0.09,Wunderground v.1.15,2013-02-08 03:05:00,
2013-02-07 22:15:00,31.4,30.6,29.89,North,32767,-999.0,0.0,97,0.00,,,0.09,Wunderground v.1.15,2013-02-08 03:15:00,
2013-02-07 22:25:00,31.3,30.5,29.89,North,32767,-999.0,0.0,97,0.00,,,0.10,Wunderground v.1.15,2013-02-08 03:25:00,
2013-02-07 22:35:00,31.2,30.2,29.89,North,32767,-999.0,0.0,96,0.00,,,0.10,Wunderground v.1.15,2013-02-08 03:35:00,
2013-02-07 22:45:00,31.2,30.2,29.88,North,32767,-999.0,0.0,96,0.00,,,0.10,Wunderground v.1.15,2013-02-08 03:45:00,
2013-02-07 22:50:00,31.2,30.2,29.88,North,32767,-999.0,0.0,96,0.00,,,0.10,Wunderground v.1.15,2013-02-08 03:50:00,
2013-02-07 23:00:00,31.1,30.1,29.88,North,32767,-999.0,0.0,96,0.00,,,0.10,Wunderground v.1.15,2013-02-08 04:00:00,
2013-02-07 23:05:00,31.1,30.1,29.87,North,32767,-999.0,0.0,96,0.00,,,0.10,Wunderground v.1.15,2013-02-08 04:05:00,
2013-02-07 23:15:00,31.1,30.1,29.87,North,32767,-999.0,0.0,96,0.00,,,0.10,Wunderground v.1.15,2013-02-08 04:15:00,
2013-02-07 23:20:00,31.1,30.1,29.87,North,32767,-999.0,0.0,96,0.00,,,0.10,Wunderground v.1.15,2013-02-08 04:20:00,
2013-02-07 23:25:00,31.1,30.1,29.87,North,32767,-999.0,0.0,96,0.00,,,0.10,Wunderground v.1.15,2013-02-08 04:25:00,
2013-02-07 23:35:00,31.0,30.2,29.87,North,32767,-999.0,0.0,97,0.00,,,0.10,Wunderground v.1.15,2013-02-08 04:35:00,
2013-02-07 23:45:00,30.9,30.1,29.87,North,32767,-999.0,0.0,97,0.00,,,0.10,Wunderground v.1.15,2013-02-08 04:45:00,
2013-02-07 23:50:00,30.9,30.1,29.87,North,32767,-999.0,0.0,97,0.00,,,0.10,Wunderground v.1.15,2013-02-08 04:50:00,